Flag Weather past 2 weeks in Berlin, Berlin, Germany

Now
60 °F

Cool.


Feels Like: 60 °F
Forecast: 49 / 59 °F
Wind: 1 mph from Southwest

Location: Berlin-Tempelhof

Current Time: Nov 1, 2014 at 11:31:23 AM

Latest Report: Nov 1, 2014 at 11:00 AM


Visibility: N/A

Pressure: 30.18 "Hg

Humidity: 79%

Dew point: 53 °F

Location of BerlinLocation

Historic Weather in Berlin — Graph

°F

Berlin temperature yesterday

Maximum temperature yesterday: 58 °F (at 3:00 PM)
Minimum temperature yesterday: 47 °F (at 5:00 AM)
Average temperature yesterday: 52 °F

Past Weeks' High & Low Weather Summary

 TemperatureHumidityPressure
High72 °F (Oct 19, 4:00 PM)99% (Oct 18, 8:00 AM)30.35 "Hg (Oct 18, 8:00 AM)
Low37 °F (Oct 29, 7:00 AM)60% (Oct 19, 4:00 PM)29.44 "Hg (Oct 21, 10:00 PM)
Average51 °F87%30.10 "Hg
* Reported Oct 17 11:00 AM — Nov 1 10:00 AM, Berlin, Weather by CustomWeather, © 2014

Note: Actual official high and low records may vary slightly from our data, if they occured in-between our weather recording intervals... More about our weather records

Advertising

Berlin weather history for previous 24 hours

 ConditionsComfort  
Time TempWeatherWind HumidityBarometerVisibility
10:00 AM
Nov 1
56 °FCool.2 mph88%30.19 "HgN/A
9:00 AM53 °FCool.1 mph96%30.19 "HgN/A
8:00 AM50 °FCool.1 mph98%30.19 "HgN/A
7:00 AM50 °FCool.1 mph97%30.19 "HgN/A
6:00 AM50 °FCool.1 mph97%30.18 "HgN/A
5:00 AM51 °FCool.1 mph96%30.18 "HgN/A
4:00 AM51 °FCool.1 mph96%30.19 "HgN/A
3:00 AM52 °FCool.1 mph96%30.20 "HgN/A
2:00 AM51 °FCool.1 mph97%30.20 "HgN/A
1:00 AM51 °FCool.1 mph96%30.20 "HgN/A
12:00 AM51 °FCool.1 mph96%30.22 "HgN/A
11:00 PM
Oct 31
52 °FCool.2 mph95%30.22 "HgN/A
10:00 PM51 °FCool.2 mph96%30.22 "HgN/A
9:00 PM51 °FCool.1 mph97%30.23 "HgN/A
8:00 PM52 °FCool.2 mph94%30.23 "HgN/A
7:00 PM53 °FCool.2 mph92%30.24 "HgN/A
6:00 PM54 °FCool.2 mph91%30.24 "HgN/A
5:00 PM56 °FCool.2 mph87%30.24 "HgN/A
4:00 PM57 °FCool.2 mph84%30.24 "HgN/A
3:00 PM58 °FCool.3 mph80%30.24 "HgN/A
2:00 PM57 °FCool.3 mph80%30.26 "HgN/A
1:00 PM56 °FCool.3 mph82%30.27 "HgN/A
12:00 PM55 °FCool.5 mph84%30.29 "HgN/A
11:00 AM53 °FCool.2 mph87%30.30 "HgN/A
Weather by CustomWeather, © 2014

See weather overviewHow to use our weather pages